| time (UTC) | temp F | wind direction | speed MPH | gust MPH | rain 1hr in | rain 24hr in | rain mn in | humidity % | barometer mb |
| 20260510080309 | 56 | 49 | 11.0 | 18.0 | 0.00 | 0.00 | 0.00 | 92 | 1011.2 |
| 20260510075309 | 55 | 120 | 8.0 | 20.0 | 0.00 | 0.00 | 0.00 | 93 | 1011.3 |
| 20260510074309 | 55 | 39 | 11.0 | 22.0 | 0.00 | 0.00 | 0.00 | 93 | 1011.3 |
| 20260510073309 | 56 | 70 | 10.0 | 16.0 | 0.00 | 0.00 | 0.00 | 93 | 1011.2 |
| 20260510072309 | 56 | 94 | 9.0 | 14.0 | 0.00 | 0.00 | 0.00 | 94 | 1011.0 |
| 20260510071309 | 55 | 84 | 7.0 | 17.0 | 0.00 | 0.00 | 0.00 | 94 | 1011.1 |
| 20260510070309 | 55 | 101 | 11.0 | 17.0 | 0.00 | 0.00 | 0.00 | 94 | 1011.0 |
| 20260510065309 | 55 | 63 | 12.0 | 18.0 | 0.00 | 0.00 | 0.00 | 95 | 1011.0 |
| 20260510064309 | 55 | 47 | 13.0 | 18.0 | 0.00 | 0.00 | 0.00 | 95 | 1011.0 |
| 20260510063309 | 55 | 96 | 8.0 | 13.0 | 0.00 | 0.00 | 0.00 | 96 | 1011.0 |
| 20260510062309 | 55 | 60 | 8.0 | 14.0 | 0.00 | 0.00 | 0.00 | 96 | 1010.9 |
| 20260510061309 | 55 | 101 | 9.0 | 15.0 | 0.00 | 0.00 | 0.00 | 96 | 1010.9 |
| 20260510060309 | 55 | 77 | 9.0 | 15.0 | 0.00 | 0.00 | 0.00 | 96 | 1010.8 |
| 20260510055309 | 55 | 117 | 8.0 | 17.0 | 0.00 | 0.00 | 0.00 | 96 | 1010.7 |
| 20260510054309 | 55 | 65 | 11.0 | 16.0 | 0.00 | 0.00 | 0.00 | 97 | 1010.6 |
| 20260510053309 | 54 | 84 | 9.0 | 17.0 | 0.00 | 0.00 | 0.00 | 97 | 1010.6 |
| 20260510052309 | 54 | 51 | 6.0 | 13.0 | 0.00 | 0.00 | 0.00 | 97 | 1010.5 |
| 20260510050309 | 54 | 84 | 10.0 | 16.0 | 0.00 | 0.00 | 0.00 | 97 | 1010.6 |
| 20260510045309 | 54 | 77 | 7.0 | 13.0 | 0.00 | 0.00 | 0.00 | 97 | 1010.6 |
| 20260510044309 | 54 | 108 | 9.0 | 16.0 | 0.00 | 0.00 | 0.00 | 97 | 1010.5 |
| 20260510042313 | 54 | 61 | 8.0 | 17.0 | 0.00 | 0.00 | 0.00 | 97 | 1010.5 |
| 20260510041312 | 54 | 93 | 10.0 | 19.0 | 0.00 | 0.00 | 0.00 | 97 | 1010.6 |
| 20260510040311 | 54 | 49 | 9.0 | 17.0 | 0.00 | 0.00 | 0.00 | 97 | 1010.6 |
| 20260510033312 | 54 | 65 | 9.0 | 16.0 | 0.00 | 0.00 | 0.00 | 97 | 1010.6 |
| 20260510031312 | 54 | 117 | 12.0 | 17.0 | 0.00 | 0.00 | 0.00 | 97 | 1010.7 |
| 20260510030312 | 54 | 63 | 9.0 | 20.0 | 0.00 | 0.00 | 0.00 | 97 | 1010.7 |
| 20260510024311 | 54 | 76 | 9.0 | 17.0 | 0.00 | 0.00 | 0.00 | 97 | 1010.8 |
| 20260510023312 | 54 | 79 | 9.0 | 16.0 | 0.00 | 0.00 | 0.00 | 97 | 1010.9 |
| 20260510022311 | 55 | 86 | 8.0 | 15.0 | 0.00 | 0.00 | 0.00 | 98 | 1011.1 |
| 20260510021311 | 55 | 79 | 11.0 | 16.0 | 0.00 | 0.00 | 0.00 | 98 | 1011.1 |
| 20260510020311 | 55 | 72 | 9.0 | 12.0 | 0.00 | 0.00 | 0.00 | 98 | 1011.2 |
| 20260510015311 | 55 | 70 | 8.0 | 14.0 | 0.00 | 0.00 | 0.00 | 98 | 1011.4 |
| 20260510014311 | 54 | 89 | 8.0 | 13.0 | 0.00 | 0.00 | 0.00 | 98 | 1011.5 |
| 20260510013311 | 55 | 86 | 5.0 | 12.0 | 0.00 | 0.00 | 0.00 | 98 | 1011.6 |
| 20260510012311 | 55 | 114 | 7.0 | 14.0 | 0.00 | 0.00 | 0.00 | 97 | 1011.6 |
| 20260510011311 | 55 | 79 | 5.0 | 12.0 | 0.00 | 0.00 | 0.00 | 97 | 1011.6 |
| 20260510003311 | 56 | 100 | 4.0 | 9.0 | 0.00 | 0.00 | 0.00 | 97 | 1011.8 |
| 20260510002311 | 56 | 117 | 4.0 | 8.0 | 0.00 | 0.00 | 0.00 | 97 | 1011.9 |
| 20260510001311 | 56 | 131 | 4.0 | 8.0 | 0.00 | 0.00 | 0.00 | 97 | 1012.2 |
| 20260509234311 | 56 | 94 | 4.0 | 6.0 | 0.00 | 0.00 | 0.00 | 97 | 1012.1 |
| 20260509233311 | 56 | 58 | 4.0 | 7.0 | 0.00 | 0.00 | 0.00 | 97 | 1012.2 |
| 20260509232312 | 55 | 79 | 4.0 | 7.0 | 0.00 | 0.00 | 0.00 | 96 | 1012.2 |
| 20260509231311 | 55 | 59 | 3.0 | 5.0 | 0.00 | 0.00 | 0.00 | 96 | 1012.3 |
| 20260509230311 | 56 | 124 | 1.0 | 3.0 | 0.00 | 0.00 | 0.00 | 96 | 1012.3 |
| 20260509225311 | 56 | 321 | 1.0 | 3.0 | 0.00 | 0.00 | 0.00 | 96 | 1012.4 |
| 20260509224311 | 56 | 68 | 1.0 | 4.0 | 0.00 | 0.00 | 0.00 | 96 | 1012.5 |
| 20260509223311 | 56 | 9 | 1.0 | 4.0 | 0.00 | 0.00 | 0.00 | 96 | 1012.7 |
| 20260509221311 | 56 | 46 | 1.0 | 5.0 | 0.00 | 0.00 | 0.00 | 96 | 1012.8 |
| 20260509220311 | 57 | 72 | 3.0 | 5.0 | 0.00 | 0.00 | 0.00 | 96 | 1012.9 |
| 20260509215311 | 56 | 86 | 4.0 | 6.0 | 0.00 | 0.27 | 0.27 | 96 | 1012.9 |
| 20260509214311 | 57 | 60 | 3.0 | 9.0 | 0.00 | 0.27 | 0.27 | 96 | 1012.9 |
| 20260509213311 | 57 | 68 | 3.0 | 5.0 | 0.00 | 0.27 | 0.27 | 96 | 1012.8 |
| 20260509212311 | 57 | 102 | 3.0 | 6.0 | 0.00 | 0.27 | 0.27 | 96 | 1012.8 |
| 20260509211312 | 57 | 65 | 4.0 | 8.0 | 0.00 | 0.27 | 0.27 | 95 | 1012.9 |
| 20260509210311 | 57 | 121 | 6.0 | 9.0 | 0.01 | 0.27 | 0.27 | 95 | 1013.1 |
| 20260509205311 | 57 | 122 | 6.0 | 10.0 | 0.02 | 0.27 | 0.27 | 95 | 1013.0 |
| 20260509202311 | 57 | 60 | 3.0 | 11.0 | 0.22 | 0.27 | 0.27 | 95 | 1012.9 |
| 20260509201311 | 57 | 63 | 4.0 | 8.0 | 0.22 | 0.27 | 0.27 | 95 | 1012.7 |
| 20260509200311 | 57 | 89 | 4.0 | 7.0 | 0.21 | 0.26 | 0.26 | 94 | 1012.5 |
| 20260509195311 | 57 | 79 | 9.0 | 13.0 | 0.20 | 0.24 | 0.24 | 93 | 1012.6 |
| 20260509194311 | 55 | 121 | 3.0 | 5.0 | 0.00 | 0.01 | 0.15 | 94 | 1013.3 |
| 20260509193311 | 58 | 84 | 7.0 | 14.0 | 0.08 | 0.13 | 0.13 | 90 | 1013.0 |
| 20260509191311 | 60 | 171 | 3.0 | 7.0 | 0.00 | 0.05 | 0.05 | 86 | 1013.1 |
| 20260509190311 | 60 | 139 | 2.0 | 4.0 | 0.00 | 0.05 | 0.05 | 86 | 1012.7 |
| 20260509185311 | 60 | 95 | 3.0 | 4.0 | 0.00 | 0.05 | 0.05 | 86 | 1012.5 |
| 20260509184311 | 60 | 72 | 3.0 | 8.0 | 0.00 | 0.05 | 0.05 | 87 | 1012.2 |
| 20260509183311 | 60 | 71 | 3.0 | 7.0 | 0.00 | 0.05 | 0.05 | 87 | 1012.4 |
| 20260509181311 | 60 | 46 | 1.0 | 4.0 | 0.00 | 0.05 | 0.05 | 87 | 1012.4 |
| 20260509180311 | 60 | 13 | 2.0 | 6.0 | 0.00 | 0.05 | 0.05 | 86 | 1012.2 |
| 20260509175311 | 60 | 347 | 3.0 | 6.0 | 0.00 | 0.05 | 0.05 | 86 | 1012.0 |
| 20260509174311 | 60 | 8 | 3.0 | 6.0 | 0.00 | 0.05 | 0.05 | 87 | 1012.0 |
| 20260509173311 | 60 | 59 | 2.0 | 3.0 | 0.00 | 0.05 | 0.05 | 87 | 1012.0 |
| 20260509172311 | 60 | 46 | 1.0 | 4.0 | 0.00 | 0.05 | 0.05 | 87 | 1011.9 |
| 20260509171310 | 60 | 206 | 1.0 | 3.0 | 0.00 | 0.05 | 0.05 | 87 | 1012.0 |
| 20260509170311 | 61 | 346 | 3.0 | 6.0 | 0.00 | 0.05 | 0.05 | 87 | 1012.0 |
| 20260509165310 | 61 | 1 | 3.0 | 5.0 | 0.00 | 0.05 | 0.05 | 87 | 1012.0 |
| 20260509164310 | 60 | 1 | 4.0 | 8.0 | 0.00 | 0.05 | 0.05 | 86 | 1012.0 |
| 20260509162310 | 61 | 83 | 3.0 | 10.0 | 0.00 | 0.05 | 0.05 | 87 | 1012.1 |
| 20260509160310 | 61 | 32 | 1.0 | 5.0 | 0.00 | 0.05 | 0.05 | 86 | 1011.9 |
| 20260509155310 | 61 | 73 | 4.0 | 7.0 | 0.00 | 0.05 | 0.05 | 84 | 1012.2 |
| 20260509154310 | 62 | 46 | 2.0 | 5.0 | 0.00 | 0.05 | 0.05 | 83 | 1012.3 |
| 20260509153310 | 62 | 1 | 1.0 | 5.0 | 0.00 | 0.05 | 0.05 | 83 | 1012.4 |
| 20260509151310 | 62 | 28 | 3.0 | 6.0 | 0.00 | 0.05 | 0.05 | 82 | 1012.6 |
| 20260509150310 | 63 | 245 | 2.0 | 6.0 | 0.00 | 0.05 | 0.05 | 83 | 1012.6 |
| 20260509145310 | 63 | 331 | 3.0 | 8.0 | 0.00 | 0.05 | 0.05 | 85 | 1012.6 |
| 20260509144310 | 63 | 327 | 3.0 | 6.0 | 0.00 | 0.05 | 0.05 | 86 | 1012.6 |
| 20260509143310 | 62 | 284 | 2.0 | 5.0 | 0.00 | 0.05 | 0.05 | 87 | 1012.6 |
| 20260509142310 | 62 | 1 | 2.0 | 5.0 | 0.00 | 0.05 | 0.05 | 90 | 1012.7 |
| 20260509141310 | 61 | 8 | 3.0 | 8.0 | 0.00 | 0.05 | 0.05 | 92 | 1012.7 |
| 20260509140310 | 60 | 269 | 1.0 | 4.0 | 0.02 | 0.05 | 0.05 | 92 | 1012.8 |
| 20260509135310 | 59 | 60 | 1.0 | 5.0 | 0.02 | 0.05 | 0.05 | 93 | 1012.9 |
| 20260509134310 | 58 | 13 | 1.0 | 7.0 | 0.02 | 0.05 | 0.05 | 93 | 1012.9 |
| 20260509133310 | 58 | 314 | 1.0 | 5.0 | 0.03 | 0.05 | 0.05 | 92 | 1012.9 |
| 20260509132310 | 58 | 58 | 4.0 | 9.0 | 0.03 | 0.05 | 0.05 | 92 | 1012.9 |
| 20260509131311 | 58 | 42 | 3.0 | 7.0 | 0.03 | 0.05 | 0.05 | 91 | 1012.9 |
| 20260509130310 | 58 | 84 | 5.0 | 7.0 | 0.02 | 0.03 | 0.03 | 90 | 1012.9 |
| 20260509124310 | 58 | 49 | 4.0 | 11.0 | 0.01 | 0.02 | 0.02 | 90 | 1013.1 |
| 20260509123311 | 58 | 108 | 7.0 | 12.0 | 0.00 | 0.02 | 0.02 | 89 | 1013.0 |
| 20260509122310 | 58 | 105 | 7.0 | 14.0 | 0.00 | 0.02 | 0.02 | 89 | 1013.0 |
| 20260509120311 | 59 | 88 | 6.0 | 12.0 | 0.00 | 0.02 | 0.02 | 87 | 1013.0 |
| 20260509115310 | 59 | 63 | 9.0 | 12.0 | 0.00 | 0.02 | 0.02 | 86 | 1012.9 |
| 20260509114310 | 59 | 88 | 7.0 | 12.0 | 0.00 | 0.02 | 0.02 | 85 | 1013.0 |
| 20260509113310 | 60 | 54 | 7.0 | 14.0 | 0.00 | 0.02 | 0.02 | 85 | 1012.9 |
| 20260509112310 | 60 | 58 | 9.0 | 12.0 | 0.00 | 0.02 | 0.02 | 84 | 1013.1 |
| 20260509111310 | 61 | 86 | 8.0 | 14.0 | 0.00 | 0.02 | 0.02 | 84 | 1013.1 |
| 20260509110311 | 60 | 72 | 7.0 | 14.0 | 0.00 | 0.02 | 0.02 | 85 | 1013.1 |
| 20260509105310 | 60 | 94 | 8.0 | 14.0 | 0.00 | 0.02 | 0.02 | 85 | 1013.0 |
| 20260509104310 | 60 | 52 | 8.0 | 15.0 | 0.00 | 0.02 | 0.02 | 84 | 1013.1 |
| 20260509103310 | 60 | 88 | 7.0 | 13.0 | 0.00 | 0.02 | 0.02 | 84 | 1013.1 |
| 20260509101310 | 61 | 65 | 4.0 | 10.0 | 0.00 | 0.02 | 0.02 | 83 | 1013.2 |
| 20260509100310 | 61 | 344 | 5.0 | 10.0 | 0.00 | 0.02 | 0.02 | 81 | 1013.3 |
| 20260509095310 | 61 | 66 | 6.0 | 8.0 | 0.00 | 0.02 | 0.02 | 82 | 1013.4 |
| 20260509094310 | 61 | 77 | 5.0 | 9.0 | 0.00 | 0.02 | 0.02 | 80 | 1013.4 |
| 20260509093310 | 61 | 147 | 4.0 | 9.0 | 0.00 | 0.02 | 0.02 | 82 | 1013.5 |
| 20260509092310 | 61 | 79 | 4.0 | 10.0 | 0.00 | 0.02 | 0.02 | 83 | 1013.6 |
| 20260509091310 | 60 | 110 | 6.0 | 11.0 | 0.00 | 0.02 | 0.02 | 85 | 1013.6 |
| 20260509090310 | 59 | 138 | 4.0 | 8.0 | 0.00 | 0.02 | 0.02 | 87 | 1013.4 |
| 20260509085309 | 58 | 115 | 3.0 | 7.0 | 0.00 | 0.02 | 0.02 | 87 | 1013.4 |
| 20260509084310 | 58 | 117 | 4.0 | 10.0 | 0.00 | 0.02 | 0.02 | 88 | 1013.5 |
| 20260509083309 | 58 | 128 | 4.0 | 7.0 | 0.00 | 0.02 | 0.02 | 90 | 1013.6 |